{"data":{"norad_id":48323,"epoch":"2026-09-20T01:29:14.430048Z","epoch_age_seconds":71568,"freshness":"FRESH","line1":"1 48323U 21036AZ  26263.06197257  .00000664  00000+0  33170-4 0  9991","line2":"2 48323  53.1605 276.4686 0001588  87.1532 272.9651 15.31701274297820","mean_motion":15.31701274,"eccentricity":0.0001588,"inclination_deg":53.1605,"raan_deg":276.4686,"arg_perigee_deg":87.1532,"mean_anomaly_deg":272.9651,"bstar":3.317e-5,"rev_number":29782,"period_min":94.013109765162,"perigee_km":469.64859643681,"apogee_km":471.82379856434,"semimajor_km":6848.8731975006,"source":"CELESTRAK","updated_at":"2026-09-20T09:00:38.936208Z"}}